{"data":{"norad_id":52270,"epoch":"2026-05-25T03:03:11.134080Z","epoch_age_seconds":78144,"freshness":"FRESH","line1":"1 52270U 22041K   26145.12721220  .00000497  00000+0  49327-4 0  9998","line2":"2 52270  53.2127 126.0073 0001284  57.8983 302.2133 15.08837588225907","mean_motion":15.08837588,"eccentricity":0.0001284,"inclination_deg":53.2127,"raan_deg":126.0073,"arg_perigee_deg":57.8983,"mean_anomaly_deg":302.2133,"bstar":4.9327e-5,"rev_number":22590,"period_min":95.437707242484,"perigee_km":538.86250470441,"apogee_km":540.63901828156,"semimajor_km":6917.887761493,"source":"CELESTRAK","updated_at":"2026-05-25T13:38:17.081697Z"}}